{"data":{"norad_id":48769,"epoch":"2026-09-19T16:53:46.108896Z","epoch_age_seconds":86888,"freshness":"FRESH","line1":"1 48769U 21045C   26262.70400589  .00000127  00000+0  30268-3 0  9998","line2":"2 48769  87.8991 240.3579 0002134  85.9514 274.1861 13.15548267257094","mean_motion":13.15548267,"eccentricity":0.0002134,"inclination_deg":87.8991,"raan_deg":240.3579,"arg_perigee_deg":85.9514,"mean_anomaly_deg":274.1861,"bstar":0.00030268,"rev_number":25709,"period_min":109.46006589966,"perigee_km":1200.1543019689,"apogee_km":1203.389407068,"semimajor_km":7579.9088545185,"source":"CELESTRAK","updated_at":"2026-09-20T09:00:44.615098Z"}}